This is the latest recevied weather packets stored in our database for station/object KC1TWD. If no packets are shown the sender has not sent any weather packets the latest 10 day(s).
| Time | Temp. | Humidity | Pressure | Rain* | Wind** | Luminosity | Snow |
|---|---|---|---|---|---|---|---|
| 1777884098 | 5.56° C | 78% | 1009.3 hPa | 0 mm | - | - | - |
| 1777883796 | 5.56° C | 78% | 1009.4 hPa | 0 mm | - | - | - |
| 1777883493 | 5.56° C | 77% | 1009.4 hPa | 0 mm | - | - | - |
| 1777883188 | 5.56° C | 78% | 1009.5 hPa | 0 mm | - | - | - |
| 1777882885 | 5.56° C | 77% | 1009.3 hPa | 0 mm | - | - | - |
| 1777882582 | 5.56° C | 80% | 1009.4 hPa | 0 mm | - | - | - |
| 1777882278 | 5° C | 76% | 1009.4 hPa | 0 mm | - | - | - |
| 1777881975 | 5.56° C | 79% | 1009.2 hPa | 0 mm | - | - | - |
| 1777881671 | 5.56° C | 77% | 1009.4 hPa | 0 mm | - | - | - |
| 1777881368 | 5.56° C | 76% | 1009.4 hPa | 0 mm | - | - | - |
| 1777881065 | 5.56° C | 78% | 1009.3 hPa | 0 mm | - | - | - |
| 1777880764 | 5.56° C | 76% | 1009.5 hPa | 0 mm | - | - | - |
| 1777880461 | 5° C | 76% | 1009.5 hPa | 0 mm | - | - | - |
| 1777880159 | 5° C | 77% | 1009.4 hPa | 0 mm | - | - | - |
| 1777879857 | 5° C | 82% | 1009.5 hPa | 0 mm | - | - | - |
| 1777879555 | 5° C | 82% | 1009.5 hPa | 0 mm | - | - | - |
| 1777879251 | 5° C | 80% | 1009.5 hPa | 0 mm | - | - | - |
| 1777878949 | 5° C | 83% | 1009.6 hPa | 0 mm | - | - | - |
| 1777878645 | 5° C | 84% | 1009.3 hPa | 0 mm | - | - | - |
| 1777878343 | 5° C | 84% | 1009.5 hPa | 0 mm | - | - | - |
| 1777878039 | 5° C | 77% | 1009.3 hPa | 0 mm | - | - | - |
| 1777877735 | 5° C | 77% | 1009.4 hPa | 0 mm | - | - | - |
| 1777877433 | 5° C | 80% | 1009.5 hPa | 0 mm | - | - | - |
| 1777877129 | 5° C | 80% | 1009.5 hPa | 0 mm | - | - | - |
| 1777876827 | 5° C | 79% | 1009.4 hPa | 0 mm | - | - | - |
* Rain latest hour (hover to see other rain measurements)
** Current wind speed in m/s (hover to see current wind gust speed)